Location: ??????
(56.0120°N, 39.1740°E)
Time: 07:46:19
(UTC+00:00)

Cosmos 2228 - Pass Details

Date: 14 April 2026
Orbit: 561 x 588 km, 82.5° (Epoch: 14 May)

Event Time Altitude Azimuth Distance (km) Brightness Sun altitude
Exits shadow 21:15:56 32° 82° (E) 1,019 4.2 -24.3°
Drops below altitude 10° 21:19:23 10° 28° (NNE) 1,911 6.4 -24.3°
Sets 21:21:44 0° 18° (NNE) 2,810 7.6 -24.3°
